Regional Weather Roundup
Issued by NWS Jackson, KY

Current Version | Previous Version | Text Only | Print | Product List | Glossary On
Versions: 1 2 3 4 5 6 7 8 9 10 11 12 13 14 15 16 17 18 19 20 21 22 23 24 25 26 27
000
ASUS43 KJKL 220710
RWRJKL

EAST KENTUCKY HOURLY WEATHER ROUNDUP
NATIONAL WEATHER SERVICE JACKSON KY
300 AM EDT TUE AUG 22 2017

NOTE: "FAIR" INDICATES FEW OR NO CLOUDS BELOW 12,000 FEET WITH
NO SIGNIFICANT WEATHER AND/OR OBSTRUCTIONS TO VISIBILITY.

* THESE REPORTS ARE NOT UNDER NWS QUALITY CONTROL AND MAY NOT
  REPORT WEATHER SUCH AS PRECIPITATION AND FOG.

KYZ079-080-083-085-087-088-110-112-115-119-120-220800
...EASTERN KENTUCKY...

CITY           SKY/WX    TMP DP  RH WIND       PRES   REMARKS
JACKSON        CLOUDY    72  69  90 CALM      30.11F
LONDON         PTCLDY    71  68  90 CALM      30.11F
SOMERSET*      CLEAR     72  70  94 CALM      30.10F
MONTICELLO*    CLEAR     69  68  96 W10       30.11F
WILLIAMSBURG*  MOSUNNY   70  70 100 SE5       30.11F
MIDDLESBORO*   CLEAR     67  67 100 CALM      30.14F
HARLAN APT*    CLOUDY    68  66  94 CALM      30.15F
PIKE CO APT*     N/A     72  72 100 SE5       30.12F
BIG SANDY APT* MOSUNNY   73  73  99 CALM      30.11F
MOREHEAD APT*  MOSUNNY   72  70  94 S6        30.09F
$$

KYZ035-036-041-042-044-050-067-078-099-220800
...CENTRAL KENTUCKY...

CITY           SKY/WX    TMP DP  RH WIND       PRES   REMARKS
MT STERLING*   PTCLDY    72  70  94 SW6       30.08F
FLEMING/MASON* PTCLDY    72  71  95 S5        30.06F
DANVILLE*      CLEAR     72  68  88 S3        30.08F
LEXINGTON      CLEAR     74  67  78 S7        30.06F
FRANKFORT      CLEAR     75  67  76 S6        30.04F
LOUISVILLE     MOCLDY    81  68  64 S9        30.02F
LEBANON*         N/A     75  66  73 S9        30.06F
GLASGOW*       CLEAR     73  67  83 CALM      30.07F
BOWLING GREEN  CLEAR     78  70  76 SW6       30.05F
$$

KYZ091>093-OHZ055-061-077-WVZ005-015-034-035-042-220800
...SOUTHERN OHIO/WEST VIRGINIA...

CITY           SKY/WX    TMP DP  RH WIND       PRES   REMARKS
COVINGTON      CLOUDY    75  70  84 S7        30.03F
COLUMBUS       MOCLDY    76  71  85 S7        30.01F
DAYTON         CLOUDY    77  67  71 S10       30.01F
WILMINGTON     CLOUDY    73  70  90 S8        30.03F
HUNTINGTON     CLOUDY    72  69  90 CALM      30.07F
CHARLESTON     CLEAR     68  67  96 CALM      30.08F
PINEVILLE*     PTCLDY    67  65  96 MISG      30.20F FOG
BECKLEY        CLEAR     68  63  84 CALM      30.19F
BLUEFIELD      CLEAR     69  62  78 CALM      30.22F
LOGAN CO APT*    N/A     72  70  94 CALM      30.13F
$$

VAZ002-007-008-TNZ017-027-036-066-071-220800
...SOUTHWEST VIRGINIA/EAST TENNESSEE...

CITY           SKY/WX    TMP DP  RH WIND       PRES   REMARKS
WISE*          CLEAR     70  63  78 CALM      30.22F
JONESVILLE*      N/A     68  66  94 CALM      30.16F
ABINGDON*      CLEAR     70  69  98 CALM      30.19F
BRISTOL        PTCLDY    68  68 100 CALM      30.15F
MORRISTOWN*    SUNNY     72  68  88 CALM      30.13F
SEVIERVILLE*   SUNNY     70  66  88 CALM      30.11F
KNOXVILLE      CLEAR     75  69  81 CALM      30.11F
LAFOLLETTE*    SUNNY     68  68 100 CALM      30.16F
OAK RIDGE      CLEAR     73  70  90 CALM      30.13F
CROSSVILLE     CLEAR     68  65  90 CALM      30.17F
NASHVILLE      CLEAR     74  68  81 S3        30.08F
$$

...KEY TO REMARKS...
VSB - VISIBILITY IN MILES
WCI - WIND CHILL INDEX
HX  - HEAT INDEX

$$




USA.gov is the U.S. government's official web portal to all federal, state and local government web resources and services.